• In Netherlands
  • List of Countries
  • For 7 days
  • Water Temperature
  • Satellite Maps
  • Weather Map
  • Weather Widgets
  • user-avatar
    Login

    Hourly Weather Saidpur

    Today, 28 June, Wednesday

    Time Temperature Precipitation Wind Pressure Humidity
    00:00 +30°C° 0 mm 2 mps 749 mmHg 86%
    01:00 +30°C° 0.5 mm 2 mps 749 mmHg 87%
    02:00 +30°C° 0.5 mm 2 mps 749 mmHg 89%
    03:00 +29°C° 0.5 mm 2 mps 749 mmHg 90%
    04:00 +29°C° 0.5 mm 2 mps 749 mmHg 90%
    05:00 +29°C° 0.5 mm 2 mps 749 mmHg 90%
    06:00 +29°C° 0 mm 1 mps 749 mmHg 88%
    07:00 +31°C° 1.1 mm 2 mps 749 mmHg 83%
    08:00 +32°C° 1.1 mm 2 mps 749 mmHg 78%
    09:00 +34°C° 1.1 mm 3 mps 749 mmHg 73%
    10:00 +35°C° 0.1 mm 3 mps 749 mmHg 69%
    11:00 +36°C° 0.1 mm 3 mps 749 mmHg 64%
    12:00 +37°C° 0 mm 3 mps 750 mmHg 59%
    13:00 +37°C° 0.2 mm 3 mps 749 mmHg 57%
    14:00 +37°C° 0.2 mm 3 mps 748 mmHg 56%
    15:00 +38°C° 0.2 mm 3 mps 747 mmHg 55%
    16:00 +37°C° 0 mm 3 mps 747 mmHg 58%
    17:00 +36°C° 0 mm 2 mps 747 mmHg 62%
    18:00 +35°C° 0 mm 2 mps 747 mmHg 68%
    19:00 +34°C° 0.1 mm 2 mps 748 mmHg 73%
    20:00 +32°C° 0.1 mm 2 mps 748 mmHg 77%
    21:00 +31°C° 0.1 mm 2 mps 748 mmHg 82%
    22:00 +31°C° 0.4 mm 2 mps 749 mmHg 83%
    23:00 +30°C° 0.4 mm 2 mps 749 mmHg 84%

    Tomorrow, 29 June, Thursday

    Time Temperature Precipitation Wind Pressure Humidity
    00:00 +30°C° 0.4 mm 2 mps 749 mmHg 86%
    01:00 +30°C° 0.6 mm 2 mps 749 mmHg 87%
    02:00 +30°C° 0.6 mm 2 mps 749 mmHg 87%
    03:00 +29°C° 0.6 mm 2 mps 748 mmHg 88%
    04:00 +29°C° 0.8 mm 2 mps 748 mmHg 88%
    05:00 +29°C° 0.8 mm 2 mps 748 mmHg 88%
    06:00 +29°C° 0.8 mm 2 mps 748 mmHg 88%
    07:00 +30°C° 0.5 mm 2 mps 748 mmHg 83%
    08:00 +31°C° 0.5 mm 2 mps 749 mmHg 78%
    09:00 +34°C° 0.5 mm 3 mps 749 mmHg 73%
    10:00 +35°C° 0.2 mm 3 mps 749 mmHg 69%
    11:00 +36°C° 0.2 mm 3 mps 748 mmHg 64%
    12:00 +37°C° 0.2 mm 3 mps 748 mmHg 60%
    13:00 +37°C° 0.3 mm 3 mps 747 mmHg 58%
    14:00 +37°C° 0.3 mm 3 mps 747 mmHg 57%
    15:00 +38°C° 0.3 mm 3 mps 746 mmHg 56%
    16:00 +37°C° 0 mm 3 mps 746 mmHg 59%
    17:00 +36°C° 0 mm 2 mps 745 mmHg 62%
    18:00 +36°C° 0 mm 2 mps 745 mmHg 65%
    19:00 +35°C° 0.1 mm 2 mps 746 mmHg 69%
    20:00 +34°C° 0.1 mm 2 mps 746 mmHg 74%
    21:00 +31°C° 0.1 mm 2 mps 747 mmHg 79%
    22:00 +31°C° 0.2 mm 3 mps 747 mmHg 80%
    23:00 +31°C° 0.2 mm 3 mps 747 mmHg 82%

    Day after tomorrow, 30 June, Friday

    Time Temperature Precipitation Wind Pressure Humidity
    00:00 +30°C° 0.2 mm 3 mps 747 mmHg 83%
    01:00 +30°C° 0.4 mm 2 mps 747 mmHg 85%
    02:00 +30°C° 0.4 mm 2 mps 747 mmHg 86%
    03:00 +29°C° 0.4 mm 2 mps 746 mmHg 87%
    04:00 +29°C° 0.1 mm 2 mps 746 mmHg 88%
    05:00 +29°C° 0.1 mm 2 mps 746 mmHg 88%
    06:00 +29°C° 0.1 mm 2 mps 746 mmHg 89%
    07:00 +30°C° 0.1 mm 2 mps 746 mmHg 84%
    08:00 +31°C° 0.1 mm 2 mps 746 mmHg 78%
    09:00 +33°C° 0.1 mm 3 mps 747 mmHg 73%
    10:00 +34°C° 0.3 mm 3 mps 747 mmHg 69%
    11:00 +36°C° 0.3 mm 3 mps 746 mmHg 65%
    12:00 +37°C° 0.3 mm 3 mps 746 mmHg 61%
    13:00 +37°C° 0.4 mm 3 mps 745 mmHg 60%
    14:00 +37°C° 0.4 mm 3 mps 745 mmHg 60%
    15:00 +37°C° 0.4 mm 4 mps 744 mmHg 60%
    16:00 +36°C° 0.5 mm 3 mps 744 mmHg 64%
    17:00 +35°C° 0.5 mm 3 mps 744 mmHg 69%
    18:00 +34°C° 0.5 mm 3 mps 744 mmHg 73%
    19:00 +33°C° 1.3 mm 3 mps 745 mmHg 77%
    20:00 +31°C° 1.3 mm 3 mps 746 mmHg 82%
    21:00 +30°C° 1.3 mm 3 mps 746 mmHg 86%
    22:00 +30°C° 1.1 mm 3 mps 746 mmHg 87%
    23:00 +30°C° 1.1 mm 3 mps 746 mmHg 87%

    1 July, Saturday

    Time Temperature Precipitation Wind Pressure Humidity
    00:00 +30°C° 1.1 mm 3 mps 746 mmHg 87%
    01:00 +29°C° 1.3 mm 3 mps 746 mmHg 88%
    02:00 +29°C° 1.3 mm 3 mps 746 mmHg 89%
    03:00 +29°C° 1.3 mm 3 mps 745 mmHg 91%
    04:00 +29°C° 3.2 mm 3 mps 745 mmHg 91%
    05:00 +29°C° 3.2 mm 2 mps 745 mmHg 92%
    06:00 +29°C° 3.2 mm 2 mps 746 mmHg 93%
    07:00 +29°C° 2.1 mm 2 mps 746 mmHg 91%
    08:00 +30°C° 2.1 mm 2 mps 746 mmHg 88%
    09:00 +31°C° 2.1 mm 2 mps 746 mmHg 86%
    10:00 +31°C° 1.6 mm 2 mps 746 mmHg 84%
    11:00 +32°C° 1.6 mm 2 mps 747 mmHg 83%
    12:00 +32°C° 1.6 mm 2 mps 747 mmHg 81%
    13:00 +32°C° 0.8 mm 2 mps 746 mmHg 80%
    14:00 +33°C° 0.8 mm 3 mps 746 mmHg 79%
    15:00 +34°C° 0.8 mm 3 mps 745 mmHg 79%
    16:00 +33°C° 0.6 mm 3 mps 745 mmHg 81%
    17:00 +31°C° 0.6 mm 3 mps 745 mmHg 84%
    18:00 +31°C° 0.6 mm 3 mps 745 mmHg 86%
    19:00 +30°C° 0.3 mm 3 mps 746 mmHg 88%
    20:00 +30°C° 0.3 mm 3 mps 746 mmHg 90%
    21:00 +29°C° 0.3 mm 3 mps 747 mmHg 92%
    22:00 +29°C° 0.8 mm 2 mps 747 mmHg 92%
    23:00 +29°C° 0.8 mm 2 mps 747 mmHg 93%

    2 July, Sunday

    Time Temperature Precipitation Wind Pressure Humidity
    00:00 +29°C° 0.8 mm 2 mps 747 mmHg 93%
    01:00 +29°C° 2.7 mm 2 mps 746 mmHg 94%
    02:00 +28°C° 2.7 mm 2 mps 746 mmHg 94%
    03:00 +28°C° 2.7 mm 2 mps 745 mmHg 95%
    04:00 +28°C° 2.7 mm 2 mps 746 mmHg 95%
    05:00 +28°C° 2.7 mm 2 mps 746 mmHg 96%
    06:00 +28°C° 2.7 mm 2 mps 746 mmHg 96%
    07:00 +29°C° 0.9 mm 2 mps 746 mmHg 92%
    08:00 +30°C° 0.9 mm 2 mps 747 mmHg 88%
    09:00 +31°C° 0.9 mm 3 mps 747 mmHg 84%
    10:00 +33°C° 0.8 mm 3 mps 747 mmHg 82%
    11:00 +34°C° 0.8 mm 3 mps 747 mmHg 79%
    12:00 +34°C° 0.8 mm 3 mps 746 mmHg 76%
    13:00 +35°C° 1 mm 3 mps 746 mmHg 75%
    14:00 +35°C° 1 mm 3 mps 746 mmHg 75%
    15:00 +35°C° 1 mm 2 mps 745 mmHg 75%
    16:00 +34°C° 2.1 mm 2 mps 746 mmHg 79%
    17:00 +32°C° 2.1 mm 2 mps 746 mmHg 83%
    18:00 +31°C° 2.1 mm 2 mps 746 mmHg 88%
    19:00 +30°C° 0.4 mm 2 mps 747 mmHg 89%
    20:00 +30°C° 0.4 mm 2 mps 747 mmHg 91%
    21:00 +29°C° 0.4 mm 2 mps 747 mmHg 93%
    22:00 +29°C° 0.3 mm 2 mps 747 mmHg 93%
    23:00 +29°C° 0.3 mm 2 mps 747 mmHg 94%

    3 July, Monday

    Time Temperature Precipitation Wind Pressure Humidity
    00:00 +29°C° 0.3 mm 2 mps 747 mmHg 94%
    01:00 +29°C° 0.4 mm 2 mps 747 mmHg 94%
    02:00 +28°C° 0.4 mm 2 mps 746 mmHg 94%
    03:00 +28°C° 0.4 mm 1 mps 746 mmHg 94%
    04:00 +28°C° 0.9 mm 2 mps 746 mmHg 94%
    05:00 +28°C° 0.9 mm 2 mps 747 mmHg 93%
    06:00 +28°C° 0.9 mm 2 mps 747 mmHg 93%
    07:00 +29°C° 0.3 mm 2 mps 747 mmHg 90%
    08:00 +30°C° 0.3 mm 3 mps 748 mmHg 87%
    09:00 +31°C° 0.3 mm 3 mps 748 mmHg 84%
    10:00 +33°C° 0.7 mm 3 mps 748 mmHg 79%
    11:00 +34°C° 0.7 mm 2 mps 748 mmHg 75%
    12:00 +35°C° 0.7 mm 2 mps 748 mmHg 71%
    13:00 +35°C° 1.1 mm 2 mps 747 mmHg 70%
    14:00 +35°C° 1.1 mm 2 mps 747 mmHg 70%
    15:00 +34°C° 1.1 mm 1 mps 747 mmHg 69%
    16:00 +34°C° 0.8 mm 1 mps 747 mmHg 72%
    17:00 +33°C° 0.8 mm 1 mps 747 mmHg 75%
    18:00 +33°C° 0.8 mm 1 mps 748 mmHg 78%
    19:00 +32°C° 0.5 mm 1 mps 748 mmHg 82%
    20:00 +31°C° 0.5 mm 1 mps 749 mmHg 86%
    21:00 +30°C° 0.5 mm 1 mps 749 mmHg 90%
    22:00 +29°C° 0 mm 1 mps 749 mmHg 91%
    23:00 +29°C° 0 mm 1 mps 749 mmHg 91%
    Show more